Location: Sungai Jaoh
(2.9167°N, 113.9167°E)
Time: 06:09:05
(UTC+00:00)

Palapa 6 Rocket - Pass Details

Date: 30 November 2020
Orbit: 485 x 1216 km, 22.7° (Epoch: 25 January)

Event Time Altitude Azimuth Distance (km) Brightness Sun altitude
Rises 12:03:51 0° 297° (WNW) 3,485 7.4 -26.7°
Reaches altitude 10° 12:06:16 10° 299° (WNW) 2,650 6.7 -27.3°
Maximum altitude 12:12:53 76° 24° (NNE) 1,103 4.0 -28.8°
Enters shadow 12:13:15 74° 53° (NE) 1,119 4.0 -28.9°
